Location: New Canada
(47.1017°N, 68.5042°W)
Time: 16:31:52
(UTC+00:00)

RS-44 - Pass Details

Date: 25 April 2024
Orbit: 1174 x 1511 km, 82.5° (Epoch: 20 May)

Event Time Altitude Azimuth Distance (km) Brightness Sun altitude
Rises 08:39:25 0° 357° (N) 4,314 ? -8.2°
Reaches altitude 10° 08:43:56 10° 20° (NNE) 3,269 ? -7.5°
Maximum altitude 08:47:57 15° 53° (NE) 2,853 ? -6.9°
Drops below altitude 10° 08:51:51 10° 85° (E) 3,158 ? -6.3°
Sets 08:56:02 0° 108° (ESE) 4,080 ? -5.7°
